Theta_e
299 299 299 299 297 296 295 296 296 297 297 297 297 297 297 296 297 296 293 293 289 286 288 293 294 290 289 289 284 288 286 283 280 276 275 275 275 278 276 279 278 277 276 275 275 273 272 289 288 282 286 289 290 290
299 299 299 299 299 298 296 295 296 296 297 296 297 297 297 296 297 297 289 294 294 289 287 293 295 296 296 295 290 289 286 285 283 278 274 275 275 274 277 273 283 273 279 275 280 278 286 289 288 291 291 289 291 290
298 299 299 299 298 299 296 295 296 296 296 296 297 297 297 297 296 297 292 294 291 288 287 288 288 296 300 298 299 288 288 291 288 286 279 274 272 276 273 274 278 282 286 281 281 284 286 289 291 292 291 290 290 289
299 299 299 299 299 299 297 295 296 296 296 296 296 297 297 297 297 296 293 294 292 288 280 284 295 294 299 298 297 297 294 295 292 288 281 277 275 281 275 278 277 279 285 282 280 284 287 291 290 293 293 292 290 287
298 298 299 298 298 298 295 295 295 295 296 296 296 297 297 297 297 296 292 293 294 289 282 283 292 295 298 297 295 296 294 291 288 283 279 278 280 279 276 279 276 282 281 279 277 285 286 287 292 294 291 290 288 285
296 297 297 297 297 295 294 295 295 295 296 295 296 296 297 297 298 291 284 291 294 295 287 278 290 292 293 295 294 293 293 290 288 284 281 282 285 280 275 274 280 284 287 287 283 289 290 291 293 292 290 289 287 286
294 294 294 294 294 294 295 295 296 295 295 296 296 297 297 298 293 285 282 291 295 294 287 279 280 289 294 293 291 290 290 288 286 283 278 282 282 283 275 275 280 285 286 287 288 289 287 289 287 290 288 288 290 287
296 296 296 296 296 296 296 296 296 296 296 296 296 296 297 297 295 289 291 296 294 292 289 276 278 282 292 285 285 289 286 285 283 281 280 277 279 279 276 282 280 285 286 286 287 289 288 289 289 288 287 286 284 282
297 297 297 296 296 296 296 296 296 296 296 296 296 296 293 290 286 288 295 298 294 292 281 278 275 273 287 284 286 284 284 277 282 277 278 279 276 276 280 282 282 284 285 285 287 288 287 286 285 285 284 283 282 281
297 297 297 296 297 297 297 297 297 296 296 296 291 287 282 287 295 296 292 287 287 287 288 277 281 275 282 276 275 278 278 277 275 279 281 277 278 284 285 286 286 286 286 286 284 282 283 283 283 283 283 283 283 282
297 297 297 297 297 297 297 297 297 297 294 289 285 284 291 294 287 286 281 280 281 278 283 281 281 279 283 276 275 279 276 277 275 278 278 276 276 280 285 286 287 288 287 287 289 289 287 286 284 283 282 283 283 283
297 296 297 297 297 297 297 297 296 293 290 290 288 291 291 287 277 278 276 279 277 277 278 278 279 281 280 283 278 283 277 277 275 280 279 275 281 286 286 286 286 286 286 287 288 286 286 285 284 283 283 282 282 282
297 297 297 297 298 297 297 297 297 298 296 293 288 282 282 277 273 271 266 274 271 278 278 278 275 280 281 282 276 280 277 273 282 278 276 280 283 284 284 285 285 286 286 286 285 285 285 283 284 283 282 280 279 277
297 297 297 297 297 297 297 297 298 296 291 283 280 273 276 274 277 278 278 278 281 281 280 280 277 278 280 277 278 276 277 281 276 275 278 278 282 282 282 283 283 282 282 283 283 284 282 283 282 283 283 282 281 281
297 297 296 296 297 298 297 298 297 293 286 281 282 274 278 281 283 283 284 283 284 285 282 284 284 284 282 279 281 279 277 276 278 277 281 277 281 281 280 282 283 283 283 283 283 282 282 282 282 281 282 282 280 278
297 297 295 297 297 297 297 295 293 290 286 284 284 280 281 279 278 280 283 283 285 286 285 285 283 280 280 279 278 277 276 274 275 281 283 281 282 279 276 278 276 278 281 281 281 281 282 281 281 281 280 279 277 275
297 293 297 297 297 296 296 290 288 285 284 283 277 284 280 280 281 283 286 282 289 286 280 283 280 279 281 280 278 279 274 276 278 283 284 284 284 282 276 280 275 277 277 276 278 282 281 281 281 280 279 279 278 276
292 295 297 297 295 293 291 290 286 285 283 282 278 278 283 283 283 282 285 286 287 286 285 284 285 279 272 274 271 276 274 274 274 278 279 284 284 284 283 282 283 281 281 281 282 281 281 281 281 280 280 280 280 279
292 292 297 297 295 292 286 287 288 281 281 281 280 282 283 283 284 285 285 287 287 289 288 284 281 277 275 278 274 281 271 275 275 278 283 284 284 283 283 283 282 282 282 282 282 281 282 282 281 281 281 280 279 279
293 294 297 297 296 290 286 284 290 281 281 282 282 281 282 282 283 283 282 283 284 286 285 282 279 282 278 277 279 278 278 279 281 280 281 282 283 283 283 282 282 282 282 282 282 281 281 281 281 281 280 280 279 278
291 290 293 293 291 290 285 283 282 282 282 280 281 281 280 281 280 280 280 284 283 282 280 280 284 281 281 280 280 281 280 281 278 279 282 281 283 283 283 283 283 282 281 281 280 280 280 280 278 280 280 280 280 279
287 293 286 288 285 287 283 283 282 284 281 279 281 281 277 276 280 279 283 280 281 280 278 278 279 279 281 282 282 284 283 283 283 281 283 283 282 282 282 283 283 282 282 282 281 281 281 282 282 282 281 281 281 280
290 288 284 286 279 275 276 282 281 281 276 277 279 277 274 274 278 282 276 280 278 278 279 280 283 285 282 283 284 284 283 282 281 282 283 283 283 284 283 283 284 283 282 282 283 283 282 282 282 282 282 281 279 278
289 282 275 275 277 269 277 273 280 280 278 278 277 274 276 274 280 276 275 278 279 277 280 283 281 280 282 283 282 283 283 280 280 281 283 283 282 282 283 283 283 284 284 283 283 283 282 283 282 281 282 280 278 277
273 270 271 265 273 273 269 270 272 277 269 272 273 270 273 278 272 271 274 274 281 282 282 280 282 283 281 281 281 282 283 282 281 281 282 283 282 282 282 282 282 283 283 283 282 282 282 282 282 281 280 280 278 277
264 267 268 268 268 270 273 267 266 268 270 269 270 275 275 271 268 268 276 280 283 283 282 278 275 280 282 283 281 279 281 284 282 279 280 283 283 282 281 280 279 279 280 284 283 282 281 281 280 280 279 279 278 277
263 265 277 280 279 278 271 272 277 272 269 266 268 267 267 264 264 272 278 281 278 280 283 284 284 284 284 283 282 282 282 283 283 282 282 283 283 283 282 281 280 280 280 281 282 282 281 280 280 280 279 279 279 278
272 273 267 269 272 275 266 266 265 265 268 276 274 267 265 266 268 274 277 277 277 282 282 283 283 284 284 284 284 281 277 277 279 279 280 279 277 276 277 278 279 280 280 282 283 282 281 281 280 280 279 278 277 277
271 273 274 264 263 267 267 269 268 274 277 275 268 267 270 276 274 273 275 277 277 275 273 280 281 283 283 282 284 282 280 280 279 275 273 271 274 277 278 275 275 277 276 277 279 281 281 280 280 279 278 278 277 278
270 274 270 263 264 264 268 272 268 270 275 276 276 275 276 275 273 274 274 273 274 276 277 278 282 282 281 281 281 283 283 282 278 277 276 273 275 272 277 276 276 280 282 281 280 279 282 280 279 278 276 276 277 277
274 272 272 269 268 269 270 271 274 274 266 267 268 273 275 272 273 276 278 278 278 272 276 279 279 282 282 281 280 280 280 284 283 283 282 275 282 281 277 280 281 279 282 281 279 279 278 273 273 274 275 275 276 277
265 267 265 263 266 269 266 268 265 265 264 262 266 261 265 271 276 272 268 276 280 280 282 282 281 281 283 282 283 282 281 280 279 282 283 278 276 279 281 280 279 279 281 276 276 275 272 273 273 274 275 274 275 275
264 262 263 269 271 265 267 268 267 265 262 264 268 265 265 269 270 270 273 276 275 276 279 281 281 282 283 284 284 280 280 281 280 276 283 283 283 282 281 282 281 280 279 274 276 275 274 273 272 273 274 273 274 275
Wind_Speed
28 28 27 26 29 28 27 22 18 18 17 14 11 12 11 5 12 7 2 9 3 2 4 6 7 6 6 4 7 4 4 4 3 3 4 4 4 6 3 4 6 5 4 4 0 3 11 4 6 2 3 4 5 7
25 25 23 23 26 28 27 25 20 18 17 13 12 11 13 8 9 11 3 6 7 4 2 4 5 4 4 6 7 4 3 6 6 5 1 3 1 1 5 3 3 3 8 5 7 6 6 2 4 5 6 8 5 5
25 25 25 23 22 23 30 27 21 19 16 14 13 11 13 16 12 12 2 3 1 1 2 2 2 5 1 2 4 6 1 4 3 4 5 3 3 4 4 6 4 4 4 5 2 5 7 6 9 6 5 6 4 4
22 23 23 24 24 23 30 26 20 19 16 14 13 12 11 13 15 12 2 3 2 1 2 3 5 5 8 8 5 3 7 4 3 3 3 4 3 4 4 4 5 6 5 5 5 6 7 0 9 11 7 2 3 4
22 19 18 18 20 20 29 22 19 17 16 14 13 12 11 9 13 6 1 2 1 1 0 4 5 1 8 10 7 6 5 5 3 2 3 3 2 4 2 2 5 7 7 6 8 7 6 4 4 13 8 8 8 7
18 17 18 19 23 28 24 20 18 17 15 13 12 12 11 9 13 3 2 2 3 1 2 3 4 1 4 7 9 8 4 2 2 4 3 3 3 5 3 5 7 11 11 11 7 6 9 8 6 8 8 6 7 7
22 24 24 24 24 21 18 17 16 15 14 12 12 12 12 13 3 3 3 3 5 1 0 2 4 4 6 7 3 1 3 2 3 1 1 4 3 6 3 10 7 8 6 7 7 5 4 5 7 8 5 7 9 6
17 18 18 17 16 16 15 14 14 14 15 13 9 6 10 13 3 3 2 3 2 1 1 1 3 2 3 2 3 2 2 0 1 3 1 2 2 2 7 19 5 13 14 15 15 14 11 7 6 6 5 7 8 7
14 14 14 13 12 12 12 13 13 11 13 12 12 15 6 2 1 2 6 7 0 1 1 1 3 3 2 1 3 2 3 1 1 3 4 5 3 9 12 10 11 12 11 12 9 8 7 9 10 9 8 8 9 7
12 11 9 8 8 9 11 12 11 12 19 18 4 2 3 5 8 10 2 2 2 1 2 2 2 2 4 1 2 4 1 3 2 6 3 4 9 19 18 15 13 12 14 10 6 5 5 5 9 9 10 9 9 9
12 11 11 10 8 8 12 13 14 19 6 2 2 3 2 17 3 3 3 3 2 3 3 4 6 5 2 4 2 1 3 3 3 5 5 4 7 6 13 17 19 16 11 10 12 11 10 9 9 8 8 9 9 10
10 10 10 10 13 18 22 20 15 3 3 6 3 2 3 0 2 4 3 3 5 6 3 5 5 4 2 4 4 4 3 1 6 4 2 5 5 4 4 6 11 11 9 9 8 10 9 8 8 9 10 10 9 8
9 9 9 9 9 14 16 15 5 11 4 0 1 2 1 3 1 5 5 3 1 3 3 3 1 4 3 3 3 3 4 6 1 3 5 6 2 4 5 6 6 8 11 11 9 8 9 8 9 10 9 6 8 7
9 8 8 7 6 6 5 4 11 7 2 2 2 2 2 2 2 3 2 2 3 1 3 3 2 4 2 3 3 4 6 1 4 5 6 3 3 2 4 5 9 8 10 11 10 9 10 11 8 8 9 10 10 9
3 2 3 1 4 6 5 8 9 4 2 0 1 2 4 2 4 3 6 3 2 3 3 2 2 3 2 2 4 4 4 5 5 5 2 2 2 3 3 4 7 8 8 8 8 8 9 9 9 8 7 8 8 8
3 4 1 8 6 5 5 5 4 2 1 1 3 3 2 1 3 1 2 3 3 4 5 2 3 4 4 4 6 7 4 6 4 2 1 3 4 3 3 4 4 4 6 7 5 6 8 8 9 8 7 7 7 9
6 2 6 9 9 10 9 3 3 3 2 3 4 2 2 3 3 2 1 3 3 1 0 2 6 8 4 4 5 5 6 3 3 1 2 4 7 6 4 7 5 5 6 5 4 7 5 6 8 8 8 6 7 6
2 2 7 8 5 4 1 2 1 3 5 4 2 3 2 3 2 2 3 3 2 1 2 2 1 3 5 4 4 3 2 2 1 2 2 3 6 7 6 7 4 4 5 5 6 6 6 7 7 5 7 8 7 7
5 5 9 12 5 3 2 4 4 4 5 2 2 2 3 3 3 3 2 3 3 3 3 2 3 3 4 3 3 3 3 3 3 2 2 4 6 8 7 6 7 4 5 6 6 5 5 6 5 5 5 6 5 5
9 6 10 12 6 2 3 4 3 2 3 3 0 2 3 3 3 2 2 2 2 2 3 3 4 2 3 3 3 3 3 4 5 4 3 2 3 7 7 6 4 5 4 5 5 5 4 4 4 5 6 6 5 5
5 3 5 5 2 3 3 3 3 4 3 2 2 2 4 2 2 1 2 2 2 3 3 3 3 3 3 2 2 2 3 4 4 5 5 5 4 5 6 5 6 6 5 5 5 5 5 5 3 4 6 6 6 5
2 7 2 2 2 3 4 4 3 3 1 3 1 1 2 2 3 3 2 1 3 4 3 3 3 3 2 2 2 3 3 4 4 2 4 6 5 5 6 6 6 6 6 7 7 7 7 6 5 6 6 6 7 7
1 3 1 2 1 1 7 2 1 3 1 4 1 2 3 2 3 1 2 3 4 2 2 1 2 3 3 3 4 4 2 4 2 3 4 3 3 4 5 6 6 7 6 5 5 5 5 6 8 7 7 7 6 6
4 2 2 2 3 5 3 3 2 3 2 1 2 3 3 3 1 1 3 3 2 2 3 3 1 2 2 3 2 2 2 2 2 2 2 4 3 3 5 5 5 5 6 4 5 5 5 6 7 6 7 7 7 7
6 6 5 5 4 2 2 4 4 2 2 3 1 4 3 2 0 3 4 3 1 1 1 1 1 2 2 1 1 2 3 3 4 3 3 3 3 2 2 2 4 5 4 5 5 6 6 6 6 7 7 7 8 9
1 5 5 4 4 3 4 2 3 4 2 2 4 3 2 2 1 6 2 1 1 1 1 2 2 1 2 2 3 2 3 4 3 3 3 4 4 4 5 4 3 2 3 5 6 7 8 7 7 9 8 8 9 9
1 4 3 3 1 2 4 3 2 2 2 4 3 1 2 2 5 5 2 1 1 2 0 2 3 2 2 3 3 3 2 4 5 4 3 4 4 4 5 5 6 5 5 6 6 7 8 8 8 8 7 5 7 9
5 1 2 4 2 1 3 2 2 4 4 3 3 2 5 7 6 4 3 4 4 3 2 2 2 2 2 2 3 1 2 2 4 4 3 3 3 1 3 2 2 6 5 7 7 5 6 7 8 8 8 7 5 7
2 2 3 3 3 2 4 6 5 4 2 3 4 3 5 3 3 2 3 4 3 3 2 1 3 1 1 1 0 1 3 4 6 4 4 3 1 3 2 2 2 3 2 3 5 6 7 6 7 7 7 6 6 7
4 2 1 1 3 5 6 5 4 4 2 3 3 3 4 5 4 2 2 2 3 6 6 5 4 3 4 3 2 1 3 4 3 4 3 4 5 3 4 4 3 3 3 3 4 3 5 3 4 3 4 4 4 5
1 2 2 3 5 5 5 3 2 3 2 3 3 6 9 5 5 4 7 6 5 3 4 5 4 4 5 5 3 3 3 4 5 5 4 3 2 2 3 3 3 3 3 4 4 4 3 2 3 5 6 6 7 7
1 5 4 3 5 5 3 2 3 2 3 1 5 1 4 2 4 5 2 1 2 3 5 5 5 4 5 4 3 3 4 3 3 5 7 4 3 4 4 2 2 1 3 4 4 4 4 5 4 5 6 7 7 7
2 1 3 3 3 5 4 2 2 4 3 3 5 4 5 5 6 5 2 1 1 1 1 0 1 2 3 2 3 3 3 3 4 4 5 6 6 5 3 3 3 3 4 3 5 5 6 5 5 5 7 8 7 7
Wind_Direction
265 262 260 251 238 230 237 248 230 232 232 231 227 222 227 206 221 210 196 187 174 205 275 240 178 210 152 137 140 174 84 314 62 112 135 192 158 209 182 204 162 187 185 199 191 166 260 342 331 166 254 284 225 225
268 263 259 251 231 231 218 232 224 221 225 225 225 226 208 220 238 228 219 173 216 234 251 308 305 271 314 142 116 160 162 181 167 114 177 107 130 67 159 239 222 224 183 191 182 217 228 188 189 271 229 227 225 217
269 264 257 248 237 224 206 213 214 208 210 213 220 221 222 208 218 233 206 149 124 277 301 250 279 275 243 184 155 133 239 172 157 150 150 157 157 123 155 234 213 253 182 201 94 235 235 296 275 238 251 228 213 169
278 271 261 245 229 219 192 197 199 198 199 204 215 224 229 212 198 221 206 177 258 207 142 259 159 183 176 161 166 119 126 69 94 73 106 131 158 167 205 220 183 202 163 208 262 278 290 212 5 294 238 213 168 129
280 271 264 242 217 189 163 186 183 188 193 197 210 223 223 218 181 210 191 223 29 352 324 300 315 175 138 161 127 98 108 127 117 85 104 183 169 113 247 43 230 178 201 192 228 206 201 223 197 263 258 213 190 152
59 72 90 99 116 132 152 171 172 182 190 197 207 214 208 200 151 105 346 249 165 177 354 345 302 293 125 154 147 134 105 59 83 130 186 213 240 125 161 237 231 208 218 227 245 220 214 229 227 233 244 207 167 153
83 90 101 114 129 145 149 156 168 177 187 200 198 199 194 184 139 126 187 308 167 142 68 332 336 298 141 117 70 64 76 144 124 187 221 165 212 164 179 243 212 200 193 222 216 214 245 193 225 211 167 148 147 134
80 87 94 104 116 129 140 150 164 175 173 161 154 169 173 171 160 282 340 62 106 70 349 56 261 48 139 123 96 89 142 333 293 194 33 151 355 128 249 243 217 226 242 246 245 245 226 207 166 166 127 126 133 145
83 89 96 105 118 131 142 148 157 163 164 164 137 100 70 79 149 216 221 174 176 330 242 171 157 205 28 88 120 58 96 82 296 215 226 125 210 218 227 219 216 211 204 228 235 239 185 168 167 161 145 143 143 155
81 82 88 104 126 140 147 148 145 137 127 124 78 115 187 197 177 145 66 138 177 248 268 241 110 212 117 53 351 80 50 196 200 234 132 204 249 250 255 248 236 218 211 222 154 152 161 172 171 169 173 165 161 158
73 69 72 87 101 145 152 144 133 128 92 43 145 220 117 118 76 161 150 167 154 221 216 225 187 164 309 110 134 132 180 207 225 246 171 241 265 256 239 235 236 224 200 208 208 195 179 165 165 150 146 151 145 150
71 67 69 75 94 109 126 128 131 124 181 197 201 92 65 140 30 109 170 157 196 205 205 174 202 166 197 118 105 187 180 149 247 155 184 251 250 278 338 283 255 211 176 161 152 146 142 143 139 136 143 144 150 145
74 77 83 82 108 134 147 155 171 344 338 224 45 74 124 275 101 145 207 246 191 207 193 173 154 137 66 72 79 151 206 227 75 205 226 234 283 359 353 351 47 110 119 114 106 104 116 114 120 134 140 128 128 125
68 66 66 68 73 86 111 52 350 346 22 77 106 336 173 272 246 228 202 201 233 127 69 113 116 125 142 85 138 181 231 238 244 228 233 246 182 104 50 50 88 82 96 107 110 114 119 124 122 128 137 142 141 144
97 120 147 103 87 80 70 17 11 25 38 73 111 246 235 212 260 207 254 289 261 165 107 76 65 99 146 148 188 212 234 232 226 231 248 236 167 128 83 75 99 101 104 105 116 125 121 125 128 124 135 136 129 130
336 315 207 172 138 87 57 37 356 22 6 347 243 270 281 173 294 263 249 245 238 217 148 154 161 174 175 195 189 212 198 226 235 202 180 123 128 99 102 94 74 92 115 126 132 110 121 129 137 136 122 128 139 145
314 263 168 157 136 90 55 55 359 348 276 251 254 236 229 240 239 227 208 264 277 273 243 165 195 196 138 202 210 189 210 216 180 172 146 149 153 150 140 116 114 118 113 109 105 116 114 117 123 131 140 145 150 150
258 8 165 132 115 73 55 58 279 245 250 235 183 238 234 222 240 257 228 230 265 256 175 264 200 212 188 185 257 229 204 255 226 171 181 138 137 143 133 127 153 142 117 107 116 121 130 142 151 156 145 147 139 143
287 298 192 158 148 169 215 202 218 259 251 232 241 211 217 246 240 224 231 262 225 217 269 234 243 221 224 218 180 179 211 180 184 206 147 136 151 132 126 133 175 164 151 145 146 145 154 159 150 146 143 150 155 154
286 276 178 173 171 281 256 254 197 242 271 248 239 268 215 217 222 208 250 240 220 210 231 225 221 212 190 226 193 185 182 160 132 152 167 129 131 135 147 156 169 157 150 140 137 144 145 142 152 154 156 162 160 170
105 214 130 117 173 246 262 277 261 216 261 236 247 164 262 337 275 237 253 189 166 219 234 214 208 224 217 189 175 142 152 151 170 160 181 184 164 152 153 162 160 161 167 166 163 172 180 194 174 169 173 176 171 166
255 170 110 235 176 215 248 236 210 276 291 248 311 198 283 282 258 249 244 168 235 227 201 180 198 176 182 178 182 158 184 180 188 135 108 126 155 163 170 173 171 181 185 184 181 186 196 198 176 176 179 184 174 169
6 138 279 162 172 321 256 10 225 243 227 261 25 302 284 281 242 8 282 229 246 247 216 174 181 167 173 157 122 89 113 156 177 182 155 159 162 163 166 171 180 183 188 188 176 177 186 176 177 177 179 174 170 170
38 104 151 211 163 252 351 313 262 268 324 282 220 259 264 241 337 25 245 257 280 317 15 355 77 71 58 127 102 158 181 151 138 75 121 137 154 179 178 179 183 187 189 169 175 179 174 181 175 180 182 177 177 179
76 285 97 292 298 31 311 310 292 342 271 254 328 301 281 24 352 260 234 267 192 246 252 250 208 217 156 191 176 220 197 155 161 176 217 173 143 116 169 183 188 190 158 159 180 179 181 174 180 182 185 182 177 182
149 253 143 217 266 144 232 222 233 228 231 289 255 281 30 76 334 252 244 349 1 327 314 288 248 188 261 202 194 210 212 181 147 172 230 182 179 174 181 178 167 231 195 181 176 191 188 184 183 184 191 187 180 179
310 285 254 223 215 300 330 306 283 124 222 225 252 17 74 250 249 255 233 161 133 266 277 320 301 272 264 270 261 256 188 172 178 196 192 175 183 176 168 185 199 218 173 186 184 186 189 187 186 189 194 187 188 187
215 153 158 271 327 202 192 284 234 226 237 232 92 196 193 204 241 232 202 211 194 184 220 270 239 246 275 289 286 170 87 94 87 73 55 39 40 93 195 193 194 172 172 186 191 182 185 188 188 187 188 189 178 180
247 242 87 302 303 294 221 199 228 240 228 131 162 244 248 242 225 211 254 219 196 162 181 213 275 243 235 304 296 168 148 150 140 142 187 226 293 277 204 165 130 128 136 139 162 169 172 174 180 181 180 181 178 169
272 141 84 298 181 240 243 186 226 250 245 191 193 304 286 273 251 218 219 200 195 210 210 202 187 192 231 212 209 217 191 189 173 153 182 215 224 228 165 164 153 144 145 155 146 128 174 156 148 126 132 137 162 166
203 93 255 229 248 246 228 236 304 259 258 239 233 223 256 274 294 243 239 241 224 188 198 209 204 186 216 219 200 204 227 209 214 202 171 170 151 141 149 171 159 152 161 160 153 155 150 132 145 152 163 167 170 166
200 207 183 247 274 278 1 203 233 225 277 288 264 306 336 5 265 283 272 51 235 203 217 205 204 207 204 209 199 180 170 169 173 191 184 172 173 165 155 167 209 182 167 154 157 157 154 160 158 162 169 173 168 162
262 275 244 261 286 306 286 82 317 290 311 270 261 207 203 188 237 257 289 109 128 270 334 298 238 115 119 153 188 166 161 172 181 186 171 174 177 175 159 158 166 200 183 169 174 169 167 154 162 165 159 160 161 157